Location: Joplin, MO
(37.0842°N, 94.5133°W)
Time: 22:22:55
(UTC+01:00)

Vanguard 1 - Visible Passes

Search period start: 21 March 2023 00:00
Search period end: 31 March 2023 01:00
Orbit: 649 x 3831 km, 34.3° (Epoch: 21 March)

Date Brightness Start Highest point End Pass type
(mag) Time Alt. Az. Time Alt. Az. Time Alt. Az.
21 Mar 12.1 01:53:19 10° W 02:13:34 80° S 02:23:44 14° E visible
21 Mar 11.4 04:21:49 10° W 04:35:53 52° SSW 04:36:25 51° SSW visible
22 Mar 12.0 02:14:47 10° W 02:34:28 77° S 02:43:16 19° ESE visible
22 Mar 11.8 04:43:15 10° W 04:55:57 41° SW 04:55:57 41° SW visible
23 Mar 11.9 02:36:14 10° W 02:55:17 72° SSW 03:02:48 24° ESE visible
23 Mar 12.2 05:04:52 10° W 05:15:29 32° SW 05:15:29 32° SW visible
24 Mar 11.8 02:57:41 10° W 03:15:58 64° SSW 03:22:21 29° SE visible
24 Mar 12.6 05:26:49 10° W 05:35:02 23° WSW 05:35:02 23° WSW visible
25 Mar 11.8 03:19:08 10° W 03:36:29 56° SSW 03:41:54 32° SSE visible
25 Mar 12.9 05:49:30 10° W 05:54:36 16° WSW 05:54:36 16° WSW visible
26 Mar 11.9 04:40:39 10° W 04:56:47 46° SW 05:01:29 32° SSE visible
27 Mar 12.5 02:33:11 10° W 02:54:56 73° SSW 03:07:30 10° ESE visible
27 Mar 12.2 05:02:18 10° W 05:16:55 37° SW 05:21:05 29° S visible
28 Mar 12.5 02:54:37 10° W 03:15:44 67° SSW 03:27:52 10° SE visible
28 Mar 12.5 05:24:15 10° W 05:36:52 28° SW 05:40:43 23° SSW visible
29 Mar 12.5 03:16:05 10° W 03:36:21 59° SSW 03:47:40 12° SE visible
29 Mar 12.8 05:46:45 10° W 05:56:39 20° SW 06:00:22 17° SSW visible
30 Mar 12.7 03:37:36 10° WNW 03:56:45 50° SW 04:07:20 13° SSE visible
30 Mar 13.1 06:10:40 10° W 06:16:21 13° WSW 06:20:02 11° SW visible
